GW2765 Weather Reports


time (UTC)temp
C
wind
direction
speed
KPH
gust
KPH
rain 1hr
cm
rain 24hr
cm
rain mn
cm
humidity
%
barometer
mb
20260507105728 18 184 0.0 0.0 0.00 0.00 0.00 56 1013.2
20260507105500 18 184 0.0 0.0 0.00 0.00 0.00 56 1013.3
20260507104728 18 184 0.0 3.2 0.00 0.00 0.00 56 1013.3
20260507104229 18 183 0.0 3.2 0.00 0.00 0.00 56 1013.3
20260507103728 18 164 0.0 1.6 0.00 0.00 0.00 56 1013.4
20260507103229 18 179 0.0 0.0 0.00 0.00 0.00 56 1013.5
20260507102729 18 178 0.0 0.0 0.00 0.00 0.00 56 1013.5
20260507102229 18 177 0.0 0.0 0.00 0.00 0.00 56 1013.6
20260507101729 19 177 0.0 0.0 0.00 0.00 0.00 55 1013.6
20260507100728 19 177 0.0 0.0 0.00 0.00 0.00 54 1013.6
20260507100228 19 177 0.0 3.2 0.00 0.00 0.00 54 1013.6
20260507095728 19 164 0.0 3.2 0.00 0.00 0.00 54 1013.6
20260507095229 19 165 0.0 3.2 0.00 0.00 0.00 55 1013.8
20260507094729 19 155 0.0 0.0 0.00 0.00 0.00 56 1013.8
20260507094229 19 148 0.0 0.0 0.00 0.00 0.00 56 1013.8
20260507093729 19 158 0.0 0.0 0.00 0.00 0.00 56 1013.8
20260507093230 19 162 0.0 0.0 0.00 0.00 0.00 57 1013.7
20260507092729 19 160 0.0 0.0 0.00 0.00 0.00 57 1013.8
20260507092509 20 160 0.0 0.0 0.00 0.00 0.00 57 1013.9
20260507091729 20 203 0.0 0.0 0.00 0.00 0.00 57 1013.8
20260507091456 20 204 0.0 0.0 0.00 0.00 0.00 56 1013.9
20260507090729 20 204 0.0 0.0 0.00 0.00 0.00 56 1014.0
20260507090459 20 204 0.0 0.0 0.00 0.00 0.00 55 1014.1
20260507085729 20 204 0.0 0.0 0.00 0.00 0.00 55 1014.0
20260507085230 20 204 0.0 0.0 0.00 0.00 0.00 54 1014.1
20260507084729 20 203 0.0 0.0 0.00 0.00 0.00 54 1014.0
20260507084229 20 203 0.0 0.0 0.00 0.00 0.00 54 1014.2
20260507083730 20 203 0.0 0.0 0.00 0.00 0.00 53 1014.4
20260507083229 20 203 0.0 0.0 0.00 0.00 0.00 53 1014.2
20260507082728 20 203 0.0 0.0 0.00 0.00 0.00 52 1014.2
20260507082503 20 203 0.0 0.0 0.00 0.00 0.00 52 1014.4
20260507081729 20 203 0.0 0.0 0.00 0.00 0.00 52 1014.4
20260507081230 20 203 0.0 0.0 0.00 0.00 0.00 52 1014.4
20260507080729 20 203 0.0 0.0 0.00 0.00 0.00 52 1014.5
20260507080229 20 203 0.0 0.0 0.00 0.00 0.00 52 1014.7
20260507075729 21 203 0.0 0.0 0.00 0.00 0.00 52 1014.7
20260507075229 21 204 0.0 0.0 0.00 0.00 0.00 51 1014.7
20260507074729 21 205 0.0 1.6 0.00 0.00 0.00 51 1014.7
20260507074229 21 203 0.0 1.6 0.00 0.00 0.00 50 1014.6
20260507073730 21 243 0.0 1.6 0.00 0.00 0.00 49 1014.8
20260507073229 21 6 0.0 1.6 0.00 0.00 0.00 51 1014.7
20260507072959 21 6 0.0 1.6 0.00 0.00 0.00 52 1014.7
20260507072229 21 136 0.0 1.6 0.00 0.00 0.00 50 1014.7
20260507071729 21 252 0.0 0.0 0.00 0.00 0.00 50 1014.8
20260507070729 22 169 0.0 1.6 0.00 0.00 0.00 50 1014.8
20260507070228 21 44 0.0 0.0 0.00 0.00 0.00 50 1014.8
20260507065730 21 44 0.0 0.0 0.00 0.00 0.00 50 1014.8
20260507065229 21 44 0.0 0.0 0.00 0.00 0.00 49 1014.8
20260507064730 22 44 0.0 0.0 0.00 0.00 0.00 47 1014.8
20260507064228 22 44 0.0 1.6 0.00 0.00 0.00 46 1014.8
20260507063957 22 44 0.0 1.6 0.00 0.00 0.00 46 1014.9
20260507063230 22 41 0.0 0.0 0.00 0.00 0.00 44 1014.8
20260507062730 22 122 0.0 0.0 0.00 0.00 0.00 42 1014.9
20260507062229 22 122 0.0 1.6 0.00 0.00 0.00 42 1014.8
20260507061728 22 14 0.0 1.6 0.00 0.00 0.00 42 1014.8
20260507060722 22 8 0.0 0.0 0.00 0.00 0.00 41 1014.7
20260507060225 22 8 0.0 0.0 0.00 0.00 0.00 41 1014.7
20260507055721 23 8 0.0 0.0 0.00 0.00 0.00 40 1014.7
20260507055219 23 8 0.0 0.0 0.00 0.00 0.00 40 1014.7
20260507054717 23 8 0.0 0.0 0.00 0.00 0.00 39 1014.7
20260507054215 23 8 0.0 0.0 0.00 0.00 0.00 38 1014.7
20260507053715 23 8 0.0 0.0 0.00 0.00 0.00 39 1014.7
20260507053216 23 8 0.0 0.0 0.00 0.00 0.00 39 1014.6
20260507052714 23 8 0.0 0.0 0.00 0.00 0.00 38 1014.7
20260507052212 23 8 0.0 0.0 0.00 0.00 0.00 39 1014.7
20260507051719 23 8 0.0 0.0 0.00 0.00 0.00 39 1014.7
20260507050710 23 8 0.0 0.0 0.00 0.00 0.00 38 1014.8
20260507050207 24 8 0.0 0.0 0.00 0.00 0.00 37 1014.6
20260507045706 24 8 0.0 1.6 0.00 0.00 0.00 37 1014.7
20260507044702 24 352 0.0 1.6 0.00 0.00 0.00 37 1014.6
20260507044430 24 352 0.0 1.6 0.00 0.00 0.00 36 1014.6
20260507043702 24 352 0.0 0.0 0.00 0.00 0.00 37 1014.6
20260507043431 24 351 0.0 0.0 0.00 0.00 0.00 36 1014.5
20260507042701 25 352 0.0 1.6 0.00 0.00 0.00 36 1014.6
20260507042204 25 352 0.0 1.6 0.00 0.00 0.00 36 1014.6
20260507041702 25 349 0.0 1.6 0.00 0.00 0.00 35 1014.6
20260507041202 25 353 0.0 1.6 0.00 0.00 0.00 35 1014.5
20260507040703 25 297 0.0 1.6 0.00 0.00 0.00 35 1014.5
20260507040200 25 338 0.0 0.0 0.00 0.00 0.00 35 1014.4
20260507035701 25 338 0.0 0.0 0.00 0.00 0.00 35 1014.2
20260507034702 25 338 0.0 0.0 0.00 0.00 0.00 34 1014.1
20260507034435 25 338 0.0 0.0 0.00 0.00 0.00 34 1014.0
20260507033701 26 338 0.0 1.6 0.00 0.00 0.00 33 1013.9
20260507032702 26 335 0.0 1.6 0.00 0.00 0.00 32 1013.8
20260507032201 26 337 0.0 0.0 0.00 0.00 0.00 32 1013.6
20260507031704 26 337 0.0 0.0 0.00 0.00 0.00 31 1013.6
20260507031202 26 337 0.0 0.0 0.00 0.00 0.00 31 1013.4
20260507030701 26 337 0.0 1.6 0.00 0.00 0.00 31 1013.4
20260507030431 27 337 0.0 1.6 0.00 0.00 0.00 30 1013.3
20260507025657 27 65 0.0 1.6 0.00 0.00 0.00 30 1013.3
20260507025151 27 65 0.0 1.6 0.00 0.00 0.00 30 1013.1
20260507024644 27 65 0.0 1.6 0.00 0.00 0.00 30 1013.0
20260507024139 27 66 0.0 1.6 0.00 0.00 0.00 29 1012.9
20260507023635 28 66 0.0 3.2 0.00 0.00 0.00 29 1012.9
20260507023133 28 70 0.0 4.8 0.00 0.00 0.00 28 1012.9
20260507022632 28 71 0.0 4.8 0.00 0.00 0.00 28 1012.7
20260507022132 28 78 1.6 8.0 0.00 0.00 0.00 28 1012.7
20260507021632 28 95 1.6 8.0 0.00 0.00 0.00 27 1012.6
20260507021131 29 87 1.6 6.4 0.00 0.00 0.00 27 1012.7
20260507020631 29 80 1.6 4.8 0.00 0.00 0.00 27 1012.6
20260507020133 30 76 1.6 8.0 0.00 0.00 0.00 27 1012.5
20260507015632 30 91 3.2 8.0 0.00 0.00 0.00 27 1012.4
20260507015356 30 73 1.6 6.4 0.00 0.00 0.00 27 1012.5
20260507014631 30 102 1.6 6.4 0.00 0.00 0.00 26 1012.5
20260507014132 30 57 1.6 6.4 0.00 0.00 0.00 26 1012.5
20260507013633 30 86 1.6 6.4 0.00 0.00 0.00 26 1012.5
20260507013131 30 65 3.2 8.0 0.00 0.00 0.00 26 1012.4
20260507012856 30 105 3.2 8.0 0.00 0.00 0.00 26 1012.4
20260507012132 30 120 3.2 11.3 0.00 0.00 0.00 27 1012.3
20260507011631 30 110 4.8 11.3 0.00 0.00 0.00 26 1012.3
20260507011130 30 79 3.2 11.3 0.00 0.00 0.00 26 1012.4
20260507010630 31 72 3.2 12.9 0.00 0.00 0.00 26 1012.4
20260507010129 31 51 3.2 12.9 0.00 0.00 0.00 26 1012.3
20260507005859 31 104 3.2 12.9 0.00 0.00 0.00 26 1012.2
20260507005358 31 68 4.8 12.9 0.00 0.00 0.00 26 1012.3
20260507004629 31 87 6.4 16.1 0.00 0.00 0.00 26 1012.3
20260507004129 31 82 6.4 16.1 0.00 0.00 0.00 24 1012.3
20260507003630 31 76 4.8 14.5 0.00 0.00 0.00 26 1012.3
20260507003129 31 76 4.8 14.5 0.00 0.00 0.00 24 1012.3
20260507002629 31 124 4.8 11.3 0.00 0.00 0.00 24 1012.2
20260507002129 31 71 4.8 14.5 0.00 0.00 0.00 24 1012.2
20260507001629 31 98 6.4 14.5 0.00 0.00 0.00 24 1012.1
20260507001130 31 113 6.4 14.5 0.00 0.00 0.00 24 1012.2
20260507000630 31 105 4.8 14.5 0.00 0.00 0.00 24 1012.1
20260507000130 31 59 4.8 12.9 0.00 0.00 0.00 24 1012.0
20260506235629 31 120 4.8 16.1 0.00 0.00 0.00 24 1012.0
20260506235129 32 108 4.8 16.1 0.00 0.00 0.00 23 1012.1
20260506234630 32 80 4.8 9.7 0.00 0.00 0.00 24 1012.0
20260506234128 31 76 4.8 12.9 0.00 0.00 0.00 23 1011.9
20260506233622 31 106 4.8 12.9 0.00 0.00 0.00 23 1012.0
20260506233117 31 96 3.2 9.7 0.00 0.00 0.00 23 1012.1
20260506232609 32 108 3.2 9.7 0.00 0.00 0.00 23 1012.2
20260506232333 31 85 4.8 11.3 0.00 0.00 0.00 23 1012.2
20260506231110 31 87 3.2 14.5 0.00 0.00 0.00 23 1012.4
20260506230608 31 54 3.2 14.5 0.00 0.00 0.00 23 1012.4
20260506230332 31 113 3.2 9.7 0.00 0.00 0.00 23 1012.4
20260506225608 31 23 3.2 9.7 0.00 0.00 0.00 24 1012.5
20260506224608 31 115 1.6 8.0 0.00 0.00 0.00 24 1012.6
20260506224118 31 103 3.2 9.7 0.00 0.00 0.00 24 1012.7
20260506223606 31 47 4.8 12.9 0.00 0.00 0.00 23 1012.9
20260506222330 31 89 1.6 6.4 0.00 0.00 0.00 26 1013.1
20260506221605 31 27 3.2 9.7 0.00 0.00 0.00 24 1013.2
20260506221109 31 18 3.2 12.9 0.00 0.00 0.00 26 1013.2
20260506220604 31 356 4.8 12.9 0.00 0.00 0.00 26 1013.4
20260506215603 31 160 1.6 9.7 0.00 0.00 0.00 26 1013.5
20260506215102 31 172 3.2 8.0 0.00 0.00 0.00 26 1013.6
20260506214600 30 63 3.2 12.9 0.00 0.00 0.00 28 1013.7
20260506214327 30 66 3.2 12.9 0.00 0.00 0.00 27 1013.8
20260506213830 31 57 1.6 11.3 0.00 0.00 0.00 27 1013.9
20260506213101 30 134 1.6 12.9 0.00 0.00 0.00 27 1013.9
20260506212602 30 71 3.2 12.9 0.00 0.00 0.00 28 1013.9
20260506212101 30 78 4.8 9.7 0.00 0.00 0.00 27 1013.9
20260506211836 30 28 3.2 9.7 0.00 0.00 0.00 28 1014.1
20260506211103 30 61 3.2 8.0 0.00 0.00 0.00 28 1014.2
20260506210601 30 34 3.2 11.3 0.00 0.00 0.00 28 1014.2
20260506205600 30 68 1.6 9.7 0.00 0.00 0.00 29 1014.5
20260506205101 30 41 1.6 9.7 0.00 0.00 0.00 28 1014.5
20260506204601 30 111 1.6 9.7 0.00 0.00 0.00 26 1014.5
20260506204102 30 94 1.6 9.7 0.00 0.00 0.00 27 1014.6
20260506203603 30 18 3.2 9.7 0.00 0.00 0.00 27 1014.7
20260506203057 30 17 3.2 11.3 0.00 0.00 0.00 28 1014.9
20260506202551 30 117 3.2 11.3 0.00 0.00 0.00 27 1014.8
20260506202046 29 333 1.6 8.0 0.00 0.00 0.00 27 1014.9
20260506201539 29 107 1.6 6.4 0.00 0.00 0.00 27 1015.0
20260506201033 29 106 1.6 9.7 0.00 0.00 0.00 27 1015.0
20260506200533 28 5 3.2 9.7 0.00 0.00 0.00 28 1015.1
20260506200030 28 56 1.6 8.0 0.00 0.00 0.00 28 1015.1
20260506195800 28 330 1.6 6.4 0.00 0.00 0.00 28 1015.2
20260506195028 28 23 1.6 11.3 0.00 0.00 0.00 29 1015.3
20260506194528 28 56 3.2 11.3 0.00 0.00 0.00 29 1015.3
20260506194030 28 105 1.6 6.4 0.00 0.00 0.00 29 1015.4
20260506193531 28 293 1.6 8.0 0.00 0.00 0.00 30 1015.5
20260506193029 28 38 1.6 8.0 0.00 0.00 0.00 29 1015.6
20260506192529 28 81 1.6 6.4 0.00 0.00 0.00 31 1015.6
20260506192028 27 166 1.6 6.4 0.00 0.00 0.00 30 1015.7
20260506191532 27 56 1.6 8.0 0.00 0.00 0.00 31 1015.9
20260506191030 27 218 1.6 8.0 0.00 0.00 0.00 30 1015.9
20260506190529 27 65 1.6 8.0 0.00 0.00 0.00 31 1016.1
20260506190259 27 22 1.6 8.0 0.00 0.00 0.00 32 1016.0
20260506185530 27 72 1.6 8.0 0.00 0.00 0.00 31 1016.1
20260506185029 27 91 3.2 8.0 0.00 0.00 0.00 32 1016.2
20260506184530 26 137 3.2 8.0 0.00 0.00 0.00 33 1016.2
20260506184029 27 75 1.6 6.4 0.00 0.00 0.00 33 1016.2
20260506183753 27 117 1.6 8.0 0.00 0.00 0.00 32 1016.3
20260506183301 27 60 1.6 8.0 0.00 0.00 0.00 32 1016.4
20260506182529 26 148 1.6 9.7 0.00 0.00 0.00 34 1016.4
20260506182030 26 40 1.6 9.7 0.00 0.00 0.00 35 1016.5
20260506181529 26 52 1.6 8.0 0.00 0.00 0.00 36 1016.5
20260506181030 25 43 3.2 8.0 0.00 0.00 0.00 35 1016.5
20260506180757 25 86 1.6 6.4 0.00 0.00 0.00 35 1016.5
20260506180029 26 55 1.6 6.4 0.00 0.00 0.00 35 1016.5
20260506175529 25 157 1.6 9.7 0.00 0.00 0.00 36 1016.6
20260506175029 25 82 3.2 9.7 0.00 0.00 0.00 37 1016.5
20260506174756 25 105 3.2 9.7 0.00 0.00 0.00 38 1016.5
20260506174032 25 64 1.6 8.0 0.00 0.00 0.00 37 1016.5
20260506173530 24 330 1.6 11.3 0.00 0.00 0.00 37 1016.5
20260506173029 24 54 1.6 11.3 0.00 0.00 0.00 37 1016.5
20260506172528 24 98 1.6 8.0 0.00 0.00 0.00 37 1016.6
20260506172031 23 239 3.2 8.0 0.00 0.00 0.00 38 1016.5
20260506171529 23 32 3.2 8.0 0.00 0.00 0.00 38 1016.6
20260506171029 23 40 3.2 8.0 0.00 0.00 0.00 39 1016.5
20260506170530 23 30 3.2 8.0 0.00 0.00 0.00 39 1016.5
20260506170258 23 90 1.6 8.0 0.00 0.00 0.00 42 1016.5
20260506165528 23 36 1.6 8.0 0.00 0.00 0.00 42 1016.5
20260506165029 23 201 1.6 6.4 0.00 0.00 0.00 42 1016.5
20260506164802 23 149 1.6 8.0 0.00 0.00 0.00 43 1016.5
20260506164259 22 89 1.6 8.0 0.00 0.00 0.00 42 1016.5
20260506163812 22 52 1.6 6.4 0.00 0.00 0.00 42 1016.5
20260506163022 22 148 1.6 6.4 0.00 0.00 0.00 42 1016.6
20260506162524 22 153 1.6 6.4 0.00 0.00 0.00 41 1016.6
20260506162250 22 43 0.0 6.4 0.00 0.00 0.00 41 1016.6
20260506160523 22 98 0.0 3.2 0.00 0.00 0.00 42 1016.5
20260506160020 22 106 0.0 3.2 0.00 0.00 0.00 43 1016.5
20260506155019 21 103 0.0 1.6 0.00 0.00 0.00 44 1016.5
20260506154523 21 209 0.0 3.2 0.00 0.00 0.00 46 1016.4
20260506154252 21 152 0.0 3.2 0.00 0.00 0.00 47 1016.5
20260506153514 20 155 0.0 3.2 0.00 0.00 0.00 48 1016.5
20260506153012 20 110 0.0 3.2 0.00 0.00 0.00 50 1016.4
20260506152515 20 109 0.0 3.2 0.00 0.00 0.00 51 1016.5
20260506152012 20 68 0.0 3.2 0.00 0.00 0.00 49 1016.5
20260506151511 20 115 0.0 1.6 0.00 0.00 0.00 51 1016.4
20260506151008 20 170 0.0 1.6 0.00 0.00 0.00 52 1016.5
20260506150509 20 148 0.0 1.6 0.00 0.00 0.00 52 1016.4
20260506150007 19 150 0.0 1.6 0.00 0.00 0.00 53 1016.4
20260506145508 20 105 0.0 3.2 0.00 0.00 0.00 52 1016.3
20260506144505 19 186 0.0 0.0 0.00 0.00 0.00 53 1016.4
20260506144004 19 127 0.0 0.0 0.00 0.00 0.00 52 1016.4
20260506143505 19 119 0.0 0.0 0.00 0.00 0.00 51 1016.3
20260506143005 19 146 0.0 0.0 0.00 0.00 0.00 53 1016.2
20260506142506 18 240 0.0 0.0 0.00 0.00 0.00 54 1016.2
20260506142003 19 259 0.0 0.0 0.00 0.00 0.00 54 1016.2
20260506141502 18 156 0.0 0.0 0.00 0.00 0.00 54 1016.2
20260506141005 18 141 0.0 0.0 0.00 0.00 0.00 55 1016.2
20260506140503 18 142 0.0 0.0 0.00 0.00 0.00 56 1016.1
20260506140004 17 143 0.0 0.0 0.00 0.00 0.00 57 1016.0
20260506135504 17 163 0.0 0.0 0.00 0.00 0.00 58 1016.0
20260506135001 17 173 0.0 0.0 0.00 0.00 0.00 58 1015.9
20260506134501 17 140 0.0 0.0 0.00 0.00 0.00 58 1015.8
20260506134228 16 142 0.0 0.0 0.00 0.00 0.00 60 1015.8
20260506133501 16 142 0.0 0.0 0.00 0.00 0.00 61 1015.7
20260506133001 16 142 0.0 0.0 0.00 0.00 0.00 62 1015.7
20260506132502 15 176 0.0 0.0 0.00 0.00 0.00 63 1015.6
20260506132001 15 176 0.0 0.0 0.00 0.00 0.00 65 1015.7
20260506131502 14 166 0.0 0.0 0.00 0.00 0.00 66 1015.5
20260506131004 14 155 0.0 0.0 0.00 0.00 0.00 66 1015.6
20260506130505 14 163 0.0 0.0 0.00 0.00 0.00 66 1015.5
20260506130005 14 145 0.0 0.0 0.00 0.00 0.00 66 1015.5
20260506125502 14 143 0.0 0.0 0.00 0.00 0.00 67 1015.4
20260506124501 14 169 0.0 0.0 0.00 0.00 0.00 67 1015.3
20260506124000 14 158 0.0 0.0 0.00 0.00 0.00 67 1015.3
20260506123503 14 203 0.0 0.0 0.00 0.00 0.00 68 1015.3
20260506123004 13 207 0.0 0.0 0.00 0.00 0.00 69 1015.3
20260506122501 13 207 0.0 0.0 0.00 0.00 0.00 68 1015.2
20260506122001 13 207 0.0 0.0 0.00 0.00 0.00 69 1015.2
20260506121501 13 207 0.0 0.0 0.00 0.00 0.00 69 1015.2
20260506121002 13 207 0.0 0.0 0.00 0.00 0.00 68 1015.0
20260506120501 13 207 0.0 0.0 0.00 0.00 0.00 68 1015.0
20260506120004 13 207 0.0 0.0 0.00 0.00 0.00 67 1014.9
20260506115505 13 207 0.0 0.0 0.00 0.00 0.00 67 1014.9
20260506115004 14 207 0.0 0.0 0.00 0.00 0.00 66 1014.9
20260506114504 14 207 0.0 0.0 0.00 0.00 0.00 65 1014.9
20260506114005 15 207 0.0 0.0 0.00 0.00 0.00 65 1014.9
20260506113502 15 207 0.0 0.0 0.00 0.00 0.00 64 1014.9
20260506113001 15 207 0.0 0.0 0.00 0.00 0.00 64 1014.9
20260506112502 15 232 0.0 0.0 0.00 0.00 0.00 64 1014.9
20260506112001 15 143 0.0 0.0 0.00 0.00 0.00 63 1014.9
20260506111500 15 171 0.0 0.0 0.00 0.00 0.00 63 1014.9
20260506111000 15 238 0.0 1.6 0.00 0.00 0.00 62 1014.9
20260506110501 15 227 0.0 1.6 0.00 0.00 0.00 61 1014.9